K0JSC-13 Weather Reports


time (UTC)temp
C
wind
direction
speed
KPH
gust
KPH
rain 1hr
cm
rain 24hr
cm
rain mn
cm
humidity
%
barometer
mb
20260508050003 15 325 8.0 16.1 0.00 0.00 0.00 37 993.0
20260508045403 15 333 6.4 14.5 0.00 0.00 0.00 38 993.0
20260508044504 15 1 1.6 8.0 0.00 0.00 0.00 41 993.2
20260508043603 15 54 0.0 3.2 0.00 0.00 0.00 41 993.3
20260508042703 15 332 1.6 3.2 0.00 0.00 0.00 41 993.3
20260508041804 15 339 1.6 8.0 0.00 0.00 0.00 38 993.3
20260508041117 15 350 4.8 8.0 0.00 0.00 0.00 38 993.3
20260508040004 14 0 0.0 0.0 0.00 0.00 0.00 40 993.4
20260508035403 14 0 0.0 0.0 0.00 0.00 0.00 42 993.5
20260508034503 15 0 0.0 0.0 0.00 0.00 0.00 40 993.5
20260508033603 15 98 0.0 3.2 0.00 0.00 0.00 38 993.3
20260508032703 15 80 3.2 12.9 0.00 0.00 0.00 42 993.2
20260508031803 15 82 1.6 8.0 0.00 0.00 0.00 43 993.2
20260508030904 15 92 0.0 1.6 0.00 0.00 0.00 45 992.9
20260508030003 15 100 0.0 3.2 0.00 0.00 0.00 40 992.7
20260508025403 15 98 0.0 1.6 0.00 0.00 0.00 38 992.7
20260508024503 15 76 0.0 1.6 0.00 0.00 0.00 39 992.6
20260508023603 15 0 0.0 0.0 0.00 0.00 0.00 40 992.5
20260508022703 15 0 0.0 0.0 0.00 0.00 0.00 40 992.4
20260508021803 16 0 0.0 0.0 0.00 0.00 0.00 37 992.4
20260508020904 16 0 0.0 0.0 0.00 0.00 0.00 40 992.3
20260508020004 17 0 0.0 0.0 0.00 0.00 0.00 41 992.3
20260508015617 17 0 0.0 0.0 0.00 0.00 0.00 36 992.3
20260508014503 18 84 1.6 8.0 0.00 0.00 0.00 33 992.2
20260508013603 20 83 4.8 11.3 0.00 0.00 0.00 31 992.2
20260508012703 20 84 4.8 11.3 0.00 0.00 0.00 30 992.1
20260508011803 20 82 9.7 20.9 0.00 0.00 0.00 28 991.9
20260508010903 21 83 11.3 20.9 0.00 0.00 0.00 25 991.8
20260508010004 21 87 9.7 17.7 0.00 0.00 0.00 27 991.8
20260508005403 21 86 8.0 20.9 0.00 0.00 0.00 25 992.0
20260508004503 22 86 14.5 22.5 0.00 0.00 0.00 26 992.1
20260508003603 22 81 11.3 19.3 0.00 0.00 0.00 24 992.1
20260508002703 22 78 4.8 16.1 0.00 0.00 0.00 27 992.2
20260508001803 21 87 3.2 12.9 0.00 0.00 0.00 28 992.3
20260508001117 21 88 3.2 11.3 0.00 0.00 0.00 28 992.3
20260508000219 21 86 4.8 11.3 0.00 0.00 0.00 30 992.5
20260507235403 21 85 4.8 11.3 0.00 0.00 0.00 27 992.5
20260507234504 21 81 3.2 11.3 0.00 0.00 0.00 28 992.5
20260507233603 21 84 8.0 14.5 0.00 0.00 0.00 28 992.6
20260507232703 21 86 9.7 20.9 0.00 0.00 0.00 28 992.6
20260507231803 21 84 3.2 14.5 0.00 0.00 0.00 29 992.8
20260507230903 22 78 8.0 20.9 0.00 0.00 0.00 30 992.8
20260507230218 21 79 9.7 24.1 0.00 0.00 0.00 28 992.9
20260507225403 21 79 6.4 20.9 0.00 0.00 0.00 30 992.9
20260507224504 22 77 11.3 25.7 0.00 0.00 0.00 24 992.9
20260507223603 22 76 14.5 24.1 0.00 0.00 0.00 27 993.0
20260507222704 22 77 11.3 17.7 0.00 0.03 0.00 28 993.1
20260507221803 22 76 12.9 24.1 0.00 0.05 0.00 26 993.2
20260507220903 23 78 12.9 25.7 0.00 0.08 0.00 27 993.3
20260507220217 23 75 9.7 17.7 0.00 0.10 0.00 27 993.4
20260507215617 23 78 6.4 17.7 0.00 0.10 0.00 29 993.5
20260507214503 22 76 6.4 14.5 0.00 0.15 0.00 25 993.7
20260507213818 22 67 4.8 14.5 0.00 0.20 0.00 26 993.9
20260507212704 22 79 9.7 20.9 0.00 0.30 0.00 27 994.2
20260507211803 22 72 4.8 17.7 0.00 0.36 0.00 22 994.5
20260507210903 22 59 1.6 9.7 0.00 0.43 0.00 29 994.8
20260507210003 21 74 8.0 20.9 0.00 0.51 0.00 24 995.2
20260507205403 22 75 4.8 20.9 0.00 0.56 0.00 24 995.3
20260507204718 22 70 4.8 16.1 0.00 0.58 0.00 24 995.5
20260507203603 21 77 3.2 20.9 0.00 0.64 0.00 24 995.9
20260507202704 21 96 1.6 6.4 0.00 0.69 0.00 29 996.1
20260507201803 21 84 1.6 8.0 0.00 0.74 0.00 27 996.5
20260507201117 21 69 1.6 6.4 0.00 0.79 0.00 25 996.9
20260507200003 20 87 3.2 19.3 0.00 0.84 0.00 27 997.3
20260507195403 20 89 3.2 14.5 0.00 0.86 0.00 27 997.4
20260507194503 20 83 4.8 19.3 0.00 0.91 0.00 34 997.7
20260507193817 20 73 4.8 14.5 0.00 0.97 0.00 31 997.8
20260507192703 19 77 8.0 20.9 0.00 1.04 0.00 28 998.1
20260507192018 18 81 9.7 25.7 0.00 1.09 0.00 32 998.2
20260507190904 19 73 9.7 20.9 0.00 1.19 0.00 30 998.4
20260507190004 18 74 8.0 20.9 0.00 1.22 0.00 29 998.6
20260507185403 18 81 11.3 24.1 0.00 1.24 0.00 33 998.8
20260507184504 18 73 6.4 22.5 0.00 1.27 0.00 31 999.1
20260507183603 18 76 9.7 22.5 0.00 1.30 0.00 34 999.3
20260507182918 18 72 8.0 29.0 0.00 1.32 0.00 32 999.5
20260507181803 17 75 9.7 25.7 0.00 1.32 0.00 31 999.8
20260507180904 17 76 9.7 20.9 0.00 1.32 0.00 32 1000.1
20260507180003 17 69 8.0 25.7 0.00 1.32 0.00 28 1000.3
20260507175403 17 73 9.7 24.1 0.00 1.32 0.00 31 1000.4
20260507174503 16 77 12.9 24.1 0.00 1.32 0.00 33 1000.5
20260507173818 16 81 16.1 24.1 0.00 1.32 0.00 37 1000.7
20260507172703 16 83 16.1 25.7 0.00 1.32 0.00 38 1001.0
20260507171803 15 83 17.7 25.7 0.00 1.32 0.00 42 1001.4
20260507170903 15 84 19.3 30.6 0.00 1.32 0.00 43 1001.7
20260507170004 15 83 17.7 30.6 0.00 1.32 0.00 42 1001.9
20260507165617 14 85 16.1 30.6 0.00 1.32 0.00 45 1002.1
20260507164503 13 87 16.1 25.7 0.00 1.32 0.00 47 1002.3
20260507163603 13 88 17.7 27.4 0.00 1.32 0.00 44 1002.5
20260507162703 13 84 16.1 24.1 0.00 1.32 0.00 46 1002.7
20260507161803 13 87 12.9 24.1 0.00 1.32 0.00 45 1002.7
20260507160903 12 85 14.5 25.7 0.00 1.32 0.00 47 1003.0
20260507160003 12 80 17.7 29.0 0.00 1.32 0.00 45 1003.2
20260507155403 12 80 19.3 29.0 0.00 1.32 0.00 47 1003.2
20260507154504 11 82 22.5 32.2 0.00 1.32 0.00 46 1003.3
20260507153603 11 85 20.9 32.2 0.00 1.32 0.00 51 1003.4
20260507152703 10 23 20.9 33.8 0.00 1.35 0.00 48 1003.5
20260507151803 11 286 16.1 32.2 0.00 1.35 0.00 47 1003.8
20260507151118 11 286 16.1 30.6 0.00 1.35 0.00 45 1003.9
20260507150003 10 284 12.9 27.4 0.00 1.35 0.00 47 1004.2
20260507145403 10 284 14.5 29.0 0.00 1.35 0.00 48 1004.1
20260507144503 9 286 16.1 37.0 0.00 1.35 0.00 50 1004.3
20260507143603 8 280 16.1 38.6 0.00 1.35 0.00 51 1004.2
20260507142704 8 278 14.5 35.4 0.00 1.35 0.00 50 1004.2
20260507141803 8 284 12.9 30.6 0.00 1.35 0.00 51 1004.3
20260507140903 8 283 14.5 29.0 0.00 1.35 0.00 51 1004.5
20260507140004 7 285 11.3 27.4 0.00 1.35 0.00 52 1004.5
20260507135618 7 287 11.3 24.1 0.00 1.35 0.00 54 1004.6
20260507134718 7 283 11.3 24.1 0.00 1.35 0.00 53 1004.7
20260507133604 6 291 8.0 19.3 0.00 1.35 0.00 56 1004.9
20260507132703 6 283 11.3 22.5 0.00 1.35 0.00 56 1005.0
20260507131803 5 289 8.0 22.5 0.00 1.35 0.00 58 1004.9
20260507131117 5 279 11.3 24.1 0.00 1.35 0.00 59 1004.8
20260507130004 4 286 12.9 25.7 0.00 1.35 0.00 60 1004.9
20260507125403 4 289 12.9 25.7 0.00 1.35 0.00 61 1005.1
20260507124503 3 294 11.3 25.7 0.00 1.35 0.00 62 1005.1
20260507123603 3 313 12.9 25.7 0.00 1.35 0.00 63 1005.3
20260507122705 3 319 11.3 17.7 0.00 1.35 0.00 64 1005.6
20260507122017 3 324 11.3 19.3 0.00 1.35 0.00 65 1005.3
20260507120903 3 324 11.3 19.3 0.00 1.37 0.00 66 1005.3
20260507120004 3 322 11.3 20.9 0.00 1.37 0.00 65 1005.3
20260507115403 3 314 14.5 24.1 0.00 1.37 0.00 65 1005.3
20260507114503 3 305 14.5 25.7 0.00 1.37 0.00 65 1005.2
20260507113603 3 309 16.1 30.6 0.00 1.37 0.00 65 1005.2
20260507112703 3 301 16.1 29.0 0.00 1.40 0.00 66 1005.2
20260507111803 3 310 16.1 27.4 0.00 1.40 0.00 65 1005.2
20260507110903 3 311 17.7 30.6 0.00 1.42 0.00 66 1005.2
20260507110005 3 304 17.7 27.4 0.00 1.42 0.00 68 1005.2
20260507105403 3 301 19.3 29.0 0.00 1.42 0.00 69 1005.2
20260507104503 3 303 16.1 35.4 0.00 1.42 0.00 69 1005.2
20260507103603 3 304 14.5 27.4 0.00 1.42 0.00 70 1005.2
20260507102917 3 307 11.3 27.4 0.00 1.42 0.00 70 1005.2
20260507102016 3 307 14.5 25.7 0.00 1.42 0.00 70 1005.5
20260507100904 3 304 12.9 24.1 0.00 1.42 0.00 70 1005.4
20260507100003 3 307 16.1 24.1 0.00 1.42 0.00 70 1005.5
20260507095617 3 306 14.5 24.1 0.00 1.42 0.00 71 1005.5
20260507094503 3 308 9.7 22.5 0.00 1.42 0.00 70 1005.2
20260507093817 3 312 9.7 17.7 0.00 1.42 0.00 70 1005.4
20260507092703 3 310 9.7 22.5 0.00 1.42 0.00 69 1005.5
20260507091803 3 297 9.7 25.7 0.00 1.42 0.00 69 1005.6
20260507091117 3 294 11.3 25.7 0.00 1.42 0.00 68 1005.4
20260507090004 3 294 12.9 25.7 0.00 1.42 0.00 68 1005.6
20260507085404 3 292 11.3 25.7 0.00 1.42 0.00 68 1005.4
20260507084503 3 287 12.9 29.0 0.00 1.42 0.00 68 1005.3
20260507083603 3 283 11.3 24.1 0.00 1.42 0.00 68 1005.3
20260507082703 3 287 8.0 22.5 0.00 1.42 0.00 69 1005.1
20260507081803 3 294 8.0 19.3 0.00 1.42 0.00 72 1005.1
20260507080903 3 298 6.4 16.1 0.00 1.42 0.00 73 1005.1
20260507080004 3 299 4.8 12.9 0.00 1.42 0.00 72 1005.2
20260507075403 3 301 4.8 12.9 0.00 1.42 0.00 72 1005.3
20260507074503 3 285 4.8 19.3 0.00 1.42 0.00 72 1005.3
20260507073604 3 292 4.8 16.1 0.00 1.42 0.00 72 1005.3
20260507072703 3 301 6.4 17.7 0.00 1.42 0.00 72 1005.3
20260507071803 3 309 9.7 22.5 0.00 1.45 0.00 73 1005.3
20260507070903 3 310 14.5 27.4 0.00 1.45 0.00 73 1005.4
20260507070007 3 308 14.5 25.7 0.00 1.45 0.00 74 1005.4
20260507065403 3 310 14.5 25.7 0.00 1.45 0.00 74 1005.4
20260507064504 3 309 14.5 22.5 0.00 1.45 0.00 75 1005.5
20260507063603 3 308 14.5 25.7 0.00 1.45 0.00 76 1005.5
20260507062703 2 317 11.3 20.9 0.00 1.45 0.00 80 1005.5
20260507061803 1 322 6.4 19.3 0.00 1.45 0.00 83 1005.5
20260507060903 1 324 8.0 16.1 0.00 1.45 0.00 84 1005.4
20260507060219 1 321 4.8 14.5 0.00 1.45 0.00 85 1005.4
20260507055403 1 326 4.8 8.0 0.00 1.47 1.45 85 1005.3
20260507054503 1 331 4.8 9.7 0.00 1.47 1.45 85 1005.2
20260507053818 1 328 6.4 9.7 0.00 1.47 1.45 85 1005.2
20260507052703 1 325 6.4 14.5 0.00 1.47 1.45 86 1005.2
20260507052016 1 327 6.4 12.9 0.00 1.47 1.45 87 1005.2
20260507051118 1 313 4.8 12.9 0.00 1.47 1.45 87 1005.2